Grizu-263a
1 51025U 22002AT  22125.44223660  .00028404  00000-0  14947-2 0  9993
2 51025  97.4994 193.5910 0013138 205.5935 154.4649 15.15523616 16926
NO-116
1 51031U 22002AZ  22125.12600995  .00009821  00000-0  52914-3 0  9994
2 51031  97.4950 193.1802 0013179 207.8788 152.1739 15.14933832 16870
IRIS-A
1 51044U 22002BN  22125.42182549  .00008017  00000-0  45657-3 0  9993
2 51044  97.4839 193.0841 0008822 203.9992 156.0829 15.13050593 16905
DELFI-PQ
1 51074U 22002CU  22125.15958439  .00019062  00000-0  98109-3 0  9997
2 51074  97.5077 193.6269 0013107 239.3441 120.6501 15.16394386 16893
SO-115
1 51080U 22002DA  22125.44165281  .00015227  00000-0  79727-3 0  9995
2 51080  97.5093 193.8828 0012595 238.1651 121.8356 15.15843244 16938
SO-114
1 51081U 22002DB  22125.44225282  .00015389  00000-0  80559-3 0  9998
2 51081  97.5083 193.8700 0012938 238.1856 121.8117 15.15844590 16935
GASPACS
1 51439U 98067TB  22125.55672003  .00517128  00000-0  26021-2 0  9999
2 51439  51.6305 180.1464 0015158  19.1510 341.0058 15.79567700 15492
